This is the latest recevied weather packets stored in our database for station/object DO1SC. If no packets are shown the sender has not sent any weather packets the latest 10 day(s).
| Time | Temp. | Humidity | Pressure | Rain* | Wind** | Luminosity | Snow |
|---|---|---|---|---|---|---|---|
| 1776920132 | 5.56° C | 57% | 1026.3 hPa | - | - | 20 W/m² | - |
| 1776919523 | 5.56° C | 58% | 1026.3 hPa | - | - | 16 W/m² | - |
| 1776918938 | 5° C | 59% | 1026.2 hPa | - | - | 11 W/m² | - |
| 1776918327 | 5° C | 59% | 1026.1 hPa | - | - | 7 W/m² | - |
| 1776917718 | 5° C | 58% | 1026.1 hPa | - | - | 4 W/m² | - |
| 1776917130 | 5° C | 56% | 1026.1 hPa | - | - | 2 W/m² | - |
| 1776916521 | 5.56° C | 54% | 1026.2 hPa | - | - | 1 W/m² | - |
| 1776915933 | 5.56° C | 55% | 1026.2 hPa | - | - | 0 W/m² | - |
| 1776915324 | 5.56° C | 55% | 1026.2 hPa | - | - | 0 W/m² | - |
| 1776914736 | 5.56° C | 54% | 1026.2 hPa | - | - | 0 W/m² | - |
| 1776914127 | 6.11° C | 51% | 1026.1 hPa | - | - | 0 W/m² | - |
| 1776913519 | 6.11° C | 52% | 1026.1 hPa | - | - | 0 W/m² | - |
| 1776912931 | 6.11° C | 51% | 1026.1 hPa | - | - | 0 W/m² | - |
| 1776912322 | 6.11° C | 51% | 1026.2 hPa | - | - | 0 W/m² | - |
| 1776911735 | 6.11° C | 50% | 1026.1 hPa | - | - | 0 W/m² | - |
| 1776911129 | 6.11° C | 50% | 1026.1 hPa | - | - | 0 W/m² | - |
| 1776910517 | 5.56° C | 52% | 1026.2 hPa | - | - | 0 W/m² | - |
| 1776909929 | 5.56° C | 54% | 1026.2 hPa | - | - | 0 W/m² | - |
| 1776909321 | 5.56° C | 55% | 1026.2 hPa | - | - | 0 W/m² | - |
| 1776908733 | 5.56° C | 55% | 1026.1 hPa | - | - | 0 W/m² | - |
| 1776908124 | 5° C | 55% | 1026.2 hPa | - | - | 0 W/m² | - |
| 1776907536 | 5° C | 57% | 1026.3 hPa | - | - | 0 W/m² | - |
| 1776906927 | 5° C | 56% | 1026.3 hPa | - | - | 0 W/m² | - |
| 1776906322 | 5° C | 55% | 1026.4 hPa | - | - | 0 W/m² | - |
| 1776905730 | 5° C | 57% | 1026.3 hPa | - | - | 0 W/m² | - |
* Rain since midnight (hover to see other rain measurements)
** Current wind speed in m/s (hover to see current wind gust speed)